Date,TemperatureHighF,TemperatureAvgF,TemperatureLowF,DewpointHighF,DewpointAvgF,DewpointLowF,HumidityHigh,HumidityAvg,HumidityLow,PressureMaxIn,PressureMinIn,WindSpeedMaxMPH,WindSpeedAvgMPH,GustSpeedMaxMPH,PrecipitationSumIn
2013-1-1,73.3,55.9,50.6,60.7,53.4,49.5,98,92,62,30.23,30.13,4,0,8,0.00
2013-1-2,79.2,61.6,54.1,67.8,58.9,53.0,98,91,65,30.06,29.97,4,0,7,0.00
2013-1-3,66.2,61.4,55.0,64.0,60.2,53.7,98,96,91,30.21,30.03,3,0,5,0.06
2013-1-4,57.4,54.3,50.8,56.2,53.2,50.0,98,96,92,30.31,30.18,3,1,5,0.02
2013-1-5,68.9,57.8,46.3,60.2,52.9,44.8,95,84,71,30.33,30.20,2,1,3,0.00
2013-1-6,78.5,64.8,56.8,68.9,60.9,54.9,95,88,68,30.23,30.06,2,0,4,0.01
2013-1-7,65.8,59.4,51.8,57.4,54.2,47.7,96,83,72,30.25,30.14,3,1,5,0.01
2013-1-8,79.6,67.6,57.9,69.9,64.0,55.8,99,89,70,30.24,30.14,3,1,5,0.00
2013-1-9,80.6,72.0,66.6,71.3,68.4,66.0,99,89,70,30.31,30.20,3,1,6,0.00
2013-1-10,82.3,71.6,65.4,70.3,66.6,63.1,99,86,53,30.32,30.22,3,1,7,0.00
2013-1-11,81.1,69.3,60.0,70.0,64.3,59.1,99,85,62,30.26,30.15,4,1,7,0.00
2013-1-12,82.1,68.7,57.6,69.0,62.8,56.8,99,83,53,30.19,30.09,3,1,8,0.00
2013-1-13,79.8,70.1,62.5,67.6,64.2,60.9,98,83,62,30.17,30.07,2,0,7,0.00
2013-1-14,81.3,69.1,59.7,67.5,63.0,58.8,99,83,56,30.19,30.11,3,0,6,0.00
2013-1-15,82.5,70.2,60.3,68.6,63.5,59.4,99,81,53,30.15,30.04,3,0,7,0.00
2013-1-16,82.2,69.0,60.3,67.0,62.0,58.5,98,80,50,30.11,30.00,3,0,6,0.00
2013-1-17,74.1,60.0,47.7,68.2,55.5,39.5,98,86,67,30.14,29.99,7,3,11,0.00
2013-1-18,63.4,50.8,38.0,53.0,43.9,33.6,85,77,68,30.32,30.15,6,2,9,0.00
2013-1-19,71.8,59.9,49.8,60.1,54.1,47.1,93,82,65,30.32,30.16,3,1,5,0.00
2013-1-20,72.4,63.0,57.1,61.1,57.1,52.4,95,82,66,30.20,30.06,2,0,4,0.00
2013-1-21,72.8,63.2,56.2,58.3,55.0,49.5,92,76,56,30.11,30.01,2,0,3,0.00
2013-1-22,60.4,54.4,44.3,49.2,40.6,35.1,83,61,39,30.29,30.08,3,1,5,0.00
2013-1-23,65.4,50.1,37.2,40.2,36.8,31.8,92,65,29,30.39,30.29,2,0,5,0.00
2013-1-24,72.9,55.2,39.2,55.2,46.8,37.3,95,76,48,30.33,30.22,3,0,5,0.00
2013-1-25,76.0,59.7,48.3,58.1,50.2,45.8,98,75,42,30.32,30.17,2,0,6,0.00
2013-1-26,75.8,59.3,46.8,59.6,53.3,44.7,98,82,54,30.28,30.16,2,0,4,0.00
2013-1-27,78.6,62.8,50.9,62.4,57.1,50.1,98,84,52,30.33,30.23,3,0,8,0.00
2013-1-28,79.0,67.7,58.7,65.1,61.9,57.6,98,83,60,30.34,30.23,4,1,10,0.00
2013-1-29,82.2,70.4,60.2,69.2,64.7,59.3,99,84,58,30.26,30.09,3,1,7,0.00
2013-1-30,84.6,73.9,65.2,67.0,65.2,63.6,95,76,53,30.10,29.86,5,2,13,0.00
2013-1-31,70.9,54.6,42.6,65.8,41.0,26.1,96,65,25,30.25,29.87,5,1,7,0.05
2013-2-1,68.4,50.3,34.1,40.8,34.1,28.3,87,60,23,30.37,30.24,2,0,4,0.00
2013-2-2,71.1,52.2,37.8,45.5,37.1,33.6,88,61,28,30.34,30.15,3,0,6,0.00
2013-2-3,69.9,52.0,35.9,52.9,40.5,33.4,94,69,30,30.20,30.06,4,1,7,0.00
2013-2-4,66.7,51.8,37.9,46.1,39.0,34.4,97,67,32,30.14,30.05,2,0,3,0.00
2013-2-5,76.2,57.2,38.2,54.0,45.7,36.6,95,69,41,30.11,30.00,3,0,6,0.00
2013-2-6,73.2,64.0,57.0,62.4,57.9,52.9,93,81,62,30.13,30.03,1,0,3,0.00
2013-2-7,80.2,68.5,59.6,66.2,62.7,58.2,97,83,58,30.08,29.84,5,1,10,0.08
2013-2-8,77.9,66.3,54.2,65.9,60.0,52.8,95,81,55,30.09,29.87,4,1,7,0.00
2013-2-9,72.8,60.1,51.5,56.9,52.8,49.9,97,79,53,30.22,30.08,3,1,11,0.00
2013-2-10,78.6,64.9,52.4,60.2,55.8,49.8,93,74,48,30.27,30.16,4,1,8,0.00
2013-2-11,82.8,69.9,59.2,64.6,61.2,57.1,95,76,50,30.20,30.06,4,1,6,0.00
2013-2-12,84.0,70.9,60.7,68.9,63.9,59.4,98,81,52,30.10,29.92,4,1,9,0.00
2013-2-13,80.1,69.5,61.9,70.5,66.8,60.7,97,92,70,29.97,29.83,6,2,9,0.25
2013-2-14,62.5,58.6,52.0,61.2,56.6,51.2,97,93,80,30.08,29.93,2,0,4,0.24
2013-2-15,68.9,55.7,47.6,52.7,48.6,45.3,97,79,46,30.10,29.96,2,0,5,0.00
2013-2-16,65.7,52.7,45.1,48.8,42.1,24.4,97,70,43,30.16,29.93,6,2,11,0.00
2013-2-17,52.9,41.7,29.5,28.8,21.4,11.9,81,48,20,30.36,30.16,3,1,7,0.00
2013-2-18,67.5,47.5,28.8,46.2,34.9,25.2,90,66,35,30.39,30.22,4,1,9,0.00
2013-2-19,78.5,61.8,45.2,57.4,52.0,42.8,95,73,45,30.24,30.05,5,1,9,0.00
2013-2-20,72.2,62.4,51.9,59.8,52.8,47.8,95,73,50,30.16,30.03,3,0,4,0.00
2013-2-21,82.8,64.5,49.0,64.0,56.4,47.3,96,77,50,30.12,29.99,2,0,5,0.00
2013-2-22,86.9,72.7,60.5,68.3,64.1,58.6,98,77,48,30.08,29.97,4,1,12,0.00
2013-2-23,85.6,73.3,64.1,69.2,66.3,62.8,98,80,53,30.00,29.87,5,1,13,0.00
2013-2-24,80.3,70.8,64.7,70.5,67.0,60.6,96,88,72,29.96,29.86,2,0,5,0.01
2013-2-25,86.6,72.3,63.6,71.3,65.3,61.6,97,81,49,29.93,29.76,5,1,9,0.00
2013-2-26,75.7,69.2,63.0,70.5,65.2,60.4,97,88,60,29.86,29.71,6,2,9,0.66
2013-2-27,72.2,62.3,52.6,60.7,52.5,47.1,92,72,43,29.98,29.86,4,1,7,0.00
2013-2-28,72.5,58.0,45.2,54.1,48.1,43.8,96,72,43,30.01,29.88,6,2,9,0.00
2013-3-1,65.7,52.7,43.9,46.3,40.3,33.4,91,66,31,30.02,29.90,5,1,8,0.00
2013-3-2,57.6,48.6,39.6,37.7,34.4,26.5,87,61,32,30.05,29.97,8,2,15,0.00
2013-3-3,49.9,42.1,35.0,32.3,30.4,29.0,82,64,48,30.17,30.01,6,1,7,0.00
2013-3-4,66.1,46.9,29.4,37.1,29.9,23.1,93,59,23,30.24,30.11,3,0,4,0.00
2013-3-5,76.1,57.4,38.1,56.8,44.6,35.1,94,66,37,30.19,29.99,5,2,10,0.00
2013-3-6,66.2,57.1,44.6,61.4,39.9,25.0,94,57,22,30.16,29.91,5,2,8,0.01
2013-3-7,66.8,50.7,35.7,42.0,36.0,31.3,86,60,31,30.24,30.13,2,0,6,0.00
2013-3-8,74.6,55.1,37.2,46.0,39.2,30.9,96,63,20,30.24,30.12,2,0,5,0.00
2013-3-9,75.5,59.0,43.4,51.8,47.2,41.8,97,69,33,30.25,30.14,3,1,7,0.00
2013-3-10,77.5,64.4,51.0,57.4,53.8,49.6,96,71,46,30.19,30.07,4,1,9,0.00
2013-3-11,78.0,66.4,54.5,61.4,57.1,52.9,95,74,51,30.12,29.89,4,1,9,0.00
2013-3-12,71.4,64.8,54.7,65.4,60.7,52.1,96,87,75,30.04,29.83,5,2,9,0.09
2013-3-13,74.0,58.1,44.9,52.0,40.7,31.1,91,61,21,30.18,30.03,3,1,6,0.00
2013-3-14,66.2,52.5,44.9,42.6,34.4,27.3,82,54,24,30.29,30.17,3,1,6,0.00
2013-3-15,73.7,53.8,36.1,45.8,38.1,30.4,96,62,27,30.30,30.13,3,1,4,0.00
2013-3-16,79.6,59.8,42.7,54.2,43.6,39.2,96,61,27,30.19,30.05,4,1,8,0.00
2013-3-17,78.5,62.8,48.3,60.1,51.7,44.0,98,71,37,30.14,30.00,4,1,8,0.06
2013-3-18,78.6,68.2,58.5,66.1,62.4,57.5,98,83,63,30.06,29.89,3,1,6,0.01
2013-3-19,85.2,71.8,61.7,66.0,62.0,59.0,98,74,45,30.04,29.89,3,1,5,0.00
2013-3-20,75.8,65.2,57.1,64.7,59.8,56.0,97,83,66,29.99,29.80,4,1,7,0.46
2013-3-21,70.9,56.4,42.9,56.3,42.1,26.4,97,66,20,29.99,29.88,4,1,6,0.01
2013-3-22,77.6,59.1,43.2,56.0,46.0,40.2,94,66,35,30.03,29.90,3,1,5,0.00
2013-3-23,85.2,70.8,56.6,72.6,64.2,52.3,96,81,60,29.99,29.77,6,1,11,0.00
2013-3-24,79.6,72.1,65.0,72.6,68.0,63.1,95,87,76,29.83,29.58,7,3,12,0.03
2013-3-25,70.5,61.6,51.9,63.4,44.1,26.1,95,57,19,30.05,29.71,4,2,8,0.00
2013-3-26,60.0,50.3,41.1,39.4,29.4,20.1,73,46,22,30.25,30.04,6,2,10,0.00
2013-3-27,63.0,48.2,36.7,39.0,33.0,26.3,85,59,26,30.33,30.21,4,1,7,0.00
2013-3-28,70.5,54.1,35.4,42.4,35.0,28.5,95,56,22,30.31,30.18,3,1,5,0.00
2013-3-29,75.7,58.1,39.7,48.8,38.9,32.7,95,56,21,30.34,30.18,3,0,5,0.00
2013-3-30,79.4,61.0,43.1,52.6,46.1,39.7,93,62,34,30.27,30.11,4,1,7,0.00
2013-3-31,83.5,67.5,53.4,56.9,52.6,45.7,91,63,28,30.17,29.99,4,1,8,0.00
2013-4-1,82.3,69.9,58.8,65.1,60.9,54.9,94,75,49,30.02,29.93,6,2,11,0.00
2013-4-2,85.5,70.0,56.8,62.7,54.5,47.1,98,64,30,30.10,30.00,3,1,4,0.00
2013-4-3,84.3,69.3,58.2,66.8,61.8,52.2,97,79,50,30.10,29.96,5,1,8,0.66
2013-4-4,74.0,69.4,65.7,68.9,66.5,63.4,98,91,76,30.01,29.87,4,1,8,0.04
2013-4-5,75.5,66.3,56.5,66.3,61.7,53.5,96,86,64,30.02,29.79,4,2,7,0.00
2013-4-6,75.7,63.5,51.3,59.0,55.0,49.4,94,76,53,30.16,30.01,3,1,7,0.00
2013-4-7,80.3,67.5,55.3,62.7,57.4,54.2,97,73,44,30.18,30.06,4,1,8,0.00
2013-4-8,85.7,72.0,58.0,64.4,59.3,55.5,97,68,38,30.14,30.05,3,1,7,0.00
2013-4-9,86.5,73.5,62.0,68.1,62.9,57.4,97,72,44,30.17,30.07,3,1,10,0.00
2013-4-10,87.9,73.5,57.6,69.2,62.7,56.5,98,72,42,30.13,29.97,3,1,9,0.00
2013-4-11,89.9,78.9,72.9,71.5,70.0,68.0,90,76,51,30.00,29.80,4,2,11,0.00
2013-4-12,82.6,76.0,71.4,73.6,71.3,68.7,94,86,70,29.90,29.80,5,2,11,0.00
2013-4-13,88.5,75.3,66.7,68.7,62.1,51.3,97,68,32,30.00,29.87,3,1,5,0.00
2013-4-14,86.3,72.6,64.9,72.7,65.7,55.5,95,80,60,29.99,29.83,5,1,9,0.23
2013-4-15,90.5,75.9,64.2,69.0,64.7,61.3,94,71,46,30.09,29.87,3,1,5,0.00
2013-4-16,88.3,75.0,66.0,71.3,67.0,63.8,97,78,53,30.16,30.06,3,1,8,0.00
2013-4-17,83.5,73.2,65.2,69.2,65.4,61.2,98,79,49,30.16,30.05,3,1,7,0.00
2013-4-18,88.1,76.1,63.3,70.9,65.2,58.1,98,72,42,30.07,29.94,3,1,6,0.00
2013-4-19,90.3,78.3,69.1,74.5,70.8,68.0,98,79,56,30.00,29.89,5,2,11,0.64
2013-4-20,76.2,60.5,55.1,70.2,58.1,53.5,96,92,79,30.18,29.96,4,1,6,0.30
2013-4-21,74.4,65.7,57.0,67.8,62.2,54.7,97,89,78,30.17,30.04,3,1,7,0.53
2013-4-22,73.2,65.9,62.0,67.3,63.6,59.0,98,92,81,30.10,30.01,4,2,6,0.00
2013-4-23,81.1,68.9,59.5,64.8,59.9,56.9,95,75,48,30.13,30.03,3,1,5,0.00
2013-4-24,87.7,69.8,54.6,63.9,57.5,51.6,97,70,30,30.15,30.06,3,0,6,0.00
2013-4-25,88.5,74.0,60.0,68.1,62.7,58.6,97,71,42,30.21,30.11,2,0,5,0.00
2013-4-26,86.0,74.3,61.6,67.9,63.9,59.9,95,72,46,30.25,30.15,3,1,5,0.00
2013-4-27,86.5,73.6,63.3,68.9,63.4,59.2,97,73,41,30.24,30.09,3,1,8,0.00
2013-4-28,85.1,72.9,61.8,68.4,64.1,60.6,97,76,52,30.15,29.98,4,1,10,0.00
2013-4-29,85.8,76.5,65.7,68.4,64.9,61.7,91,69,51,30.02,29.90,4,1,8,0.00
2013-4-30,91.3,74.0,66.6,69.7,65.1,59.7,94,77,36,30.02,29.89,5,1,6,0.00
2013-5-1,79.8,70.9,66.3,71.3,67.7,64.8,96,90,69,30.03,29.94,2,0,5,0.05
2013-5-2,68.9,68.1,66.5,67.9,66.8,65.6,97,96,93,29.98,29.82,2,0,5,0.28
2013-5-3,78.6,70.4,66.5,70.9,67.2,64.7,98,90,69,29.83,29.74,4,1,5,0.05
2013-5-4,83.3,73.1,66.3,71.1,67.9,64.5,97,85,65,29.78,29.67,4,1,7,0.02
2013-5-5,78.4,67.3,55.3,67.3,54.2,46.4,94,66,36,29.92,29.75,4,2,8,0.00
2013-5-6,73.9,64.5,57.3,57.7,53.6,49.1,94,70,44,30.01,29.88,4,2,10,0.00
2013-5-7,78.0,64.8,51.6,61.5,55.7,49.7,94,74,48,30.05,29.96,5,2,10,0.00
2013-5-8,82.9,68.9,55.9,64.4,58.7,54.5,97,73,41,30.13,30.02,4,1,7,0.00
2013-5-9,86.6,71.7,57.3,67.2,61.0,55.9,97,72,44,30.15,30.06,3,0,4,0.00
2013-5-10,92.1,75.2,60.8,71.8,64.9,59.1,96,73,40,30.14,29.99,4,1,7,0.00
2013-5-11,90.6,75.2,64.8,72.7,67.6,62.6,94,79,51,30.05,29.96,6,1,8,0.00
2013-5-12,87.6,75.4,64.2,69.8,65.8,62.4,95,74,52,30.04,29.93,5,1,9,0.00
2013-5-13,81.9,71.1,60.0,66.3,55.8,46.2,95,62,30,30.14,30.00,3,1,6,0.00
2013-5-14,81.8,68.4,50.4,57.2,49.3,45.3,88,54,28,30.22,30.11,2,1,6,0.00
2013-5-15,86.6,71.8,55.1,63.9,56.2,53.1,94,62,33,30.22,30.07,3,1,5,0.00
2013-5-16,87.3,74.2,60.4,65.4,61.2,55.1,95,67,34,30.14,30.00,3,1,6,0.00
2013-5-17,88.8,77.2,63.3,68.6,63.9,57.9,92,67,36,30.10,30.02,3,1,6,0.00
2013-5-18,91.3,77.9,66.4,73.0,67.8,61.2,96,74,40,30.12,29.99,3,0,7,0.14
2013-5-19,90.3,77.2,69.6,74.4,70.6,67.5,96,81,54,30.08,29.98,3,1,9,0.14
2013-5-20,89.7,76.3,68.9,72.4,69.1,59.7,94,80,52,30.08,29.99,4,1,6,0.03
2013-5-21,85.5,73.2,67.1,72.6,68.9,65.9,97,87,57,30.03,29.94,3,0,6,0.02
2013-5-22,83.8,73.3,66.8,74.9,69.8,65.6,97,89,64,29.99,29.90,2,0,4,0.34
2013-5-23,90.7,78.0,67.5,74.7,69.6,65.8,98,78,51,29.99,29.91,5,1,7,0.05
2013-5-24,91.1,79.8,68.8,73.7,67.2,63.0,97,69,41,30.10,29.96,3,0,6,0.01
2013-5-25,86.2,75.1,64.8,69.1,62.7,57.1,96,68,44,30.20,30.08,3,1,6,0.00
2013-5-26,87.0,72.4,59.1,64.5,58.4,55.6,93,65,36,30.22,30.13,3,1,6,0.00
2013-5-27,87.0,80.0,69.8,65.9,62.9,59.9,82,57,42,30.19,30.09,3,2,10,0.00
2013-5-28,88.2,73.9,63.2,70.5,65.9,61.1,94,78,54,30.16,30.08,3,1,6,0.00
2013-5-29,87.3,76.9,69.6,74.0,70.8,68.0,96,83,56,30.13,30.05,5,1,9,0.17
2013-5-30,85.3,77.6,70.8,74.7,71.4,68.9,97,82,61,30.13,30.04,5,2,12,0.03
2013-5-31,85.8,77.0,69.4,75.3,70.7,67.6,94,81,66,30.12,30.03,4,1,8,0.05
2013-6-1,89.5,78.3,69.9,75.5,72.2,68.7,96,83,61,30.08,29.97,4,1,7,0.00
2013-6-2,92.6,79.0,72.7,76.3,73.1,71.0,96,84,54,30.02,29.85,5,1,9,0.61
2013-6-3,91.1,79.3,70.8,76.9,73.1,69.9,98,83,57,30.00,29.87,4,1,6,0.01
2013-6-4,90.7,76.8,72.2,75.6,72.8,71.0,97,88,58,30.03,29.92,4,1,6,1.79
2013-6-5,88.3,75.6,71.0,76.4,72.2,69.7,98,90,59,30.01,29.91,4,1,7,0.19
2013-6-6,80.1,74.5,71.3,76.2,72.4,70.2,98,93,82,29.91,29.60,6,3,12,1.84
2013-6-7,90.4,79.8,70.8,75.3,72.4,69.2,96,79,56,29.95,29.73,4,2,7,0.00
2013-6-8,89.5,76.6,70.9,76.6,72.7,70.0,97,89,62,30.09,29.95,3,0,6,0.36
2013-6-9,90.1,75.7,70.3,77.8,73.0,69.7,99,92,63,30.11,30.02,3,0,8,0.32
2013-6-10,93.0,80.6,73.0,77.7,74.3,72.4,99,83,55,30.10,30.01,3,0,6,0.01
2013-6-11,89.9,77.7,72.1,77.7,73.5,69.8,97,88,61,30.08,30.01,4,0,5,0.21
2013-6-12,94.5,81.5,70.8,77.5,73.1,69.9,99,78,48,30.08,29.98,3,0,6,0.01
2013-6-13,93.8,83.0,74.3,78.2,74.2,71.1,96,77,54,30.03,29.88,4,1,6,0.00
2013-6-14,90.1,81.4,73.9,76.4,74.4,72.4,95,81,59,29.93,29.83,4,2,7,0.00
2013-6-15,87.4,78.3,73.6,77.6,74.7,71.4,98,89,70,30.07,29.90,3,1,6,2.31
2013-6-16,91.1,80.1,74.6,78.5,74.5,71.4,97,84,62,30.09,30.01,2,1,7,0.68
2013-6-17,92.9,82.2,73.3,79.3,75.1,71.3,98,81,58,30.07,29.96,3,1,6,0.01
2013-6-18,92.9,81.6,71.6,78.7,73.8,70.3,97,79,57,30.05,29.94,4,1,7,0.05
2013-6-19,92.5,82.1,73.9,78.9,74.7,71.6,96,80,58,30.03,29.94,4,1,6,0.00
2013-6-20,95.1,79.8,71.6,77.7,72.8,70.4,97,81,50,30.09,30.00,4,1,9,0.47
2013-6-21,89.1,75.9,69.9,75.6,72.0,69.2,99,89,62,30.12,30.04,5,0,7,0.91
2013-6-22,91.5,76.5,69.4,77.0,72.6,68.8,99,89,55,30.12,30.07,2,0,5,0.68
2013-6-23,91.7,80.0,71.2,77.0,73.8,70.6,99,83,53,30.14,30.07,4,1,10,0.01
2013-6-24,93.0,82.6,74.2,76.5,74.2,70.1,97,78,49,30.19,30.06,4,1,6,0.00
2013-6-25,92.9,82.7,73.4,76.9,73.5,69.5,97,76,48,30.15,30.02,2,1,5,0.00
2013-6-26,92.5,80.4,73.2,78.0,73.3,66.8,97,81,50,30.08,29.99,4,1,9,0.00
2013-6-27,91.3,78.8,69.9,78.5,73.1,68.4,96,83,65,30.04,29.92,4,0,5,0.01
2013-6-28,89.9,78.9,73.8,79.0,75.2,71.7,98,89,65,29.96,29.82,4,0,7,0.80
2013-6-29,86.6,78.0,72.2,78.2,74.5,70.1,97,89,69,29.87,29.78,4,1,7,0.53
2013-6-30,89.3,77.0,73.3,78.3,74.1,71.5,97,91,67,29.87,29.79,5,1,9,0.23
2013-7-1,84.2,76.9,72.3,76.3,73.4,71.1,96,89,73,30.02,29.83,4,2,11,0.08
2013-7-2,88.5,76.9,72.2,79.4,73.8,71.1,98,91,67,30.09,29.97,5,1,13,0.04
2013-7-3,90.8,77.4,72.9,78.8,74.1,71.6,97,90,63,30.12,30.05,4,1,8,0.22
2013-7-4,90.0,76.9,71.7,77.9,73.6,69.9,98,91,63,30.17,30.07,6,1,11,0.99
2013-7-5,89.0,78.2,71.4,78.8,74.3,70.8,99,89,63,30.15,30.06,4,1,11,0.13
2013-7-6,91.7,81.4,73.9,77.2,74.6,72.1,98,81,59,30.12,30.03,4,1,9,0.00
2013-7-7,90.8,82.3,73.9,77.2,74.6,72.2,98,79,60,30.14,30.03,4,1,8,0.00
2013-7-8,92.8,82.2,73.8,77.4,74.8,72.5,97,80,57,30.16,30.07,3,1,7,0.00
2013-7-9,90.9,81.8,72.2,76.3,73.0,70.5,97,77,53,30.17,30.06,3,1,7,0.00
2013-7-10,92.3,80.7,70.9,76.6,73.0,69.7,98,79,52,30.10,29.95,3,1,7,0.00
2013-7-11,91.0,79.0,72.6,76.1,73.4,71.1,97,84,56,30.03,29.91,4,1,8,0.13
2013-7-12,87.1,76.7,71.7,78.0,73.9,70.8,98,91,73,29.95,29.88,2,0,5,0.20
2013-7-13,90.8,76.4,72.0,76.8,73.2,70.2,98,91,61,30.00,29.90,7,0,9,1.59
2013-7-14,90.6,77.4,71.2,77.3,73.7,70.6,99,89,62,30.09,29.97,4,1,6,0.02
2013-7-15,86.4,77.0,70.7,77.9,73.7,69.8,98,90,70,30.13,30.02,2,0,4,0.15
2013-7-16,90.1,79.2,72.3,77.0,73.8,71.6,98,85,60,30.17,30.10,4,1,7,0.02
2013-7-17,91.0,80.3,73.9,77.7,74.3,71.3,97,83,58,30.17,30.08,3,1,7,0.00
2013-7-18,88.2,79.0,73.1,76.4,73.6,71.4,98,85,63,30.13,30.03,3,1,6,0.00
2013-7-19,88.0,75.4,71.7,77.5,72.5,70.5,98,91,69,30.13,30.03,5,1,7,1.66
2013-7-20,86.4,75.8,71.2,79.6,73.9,70.7,99,94,76,30.11,30.00,3,0,5,1.03
2013-7-21,90.9,79.2,71.1,80.2,75.3,70.8,100,89,68,30.12,30.02,3,0,6,0.01
2013-7-22,88.4,78.1,74.0,80.0,75.6,73.3,99,92,72,30.11,30.04,3,0,6,0.41
2013-7-23,80.1,75.0,73.5,78.3,74.1,72.9,100,97,87,30.08,29.95,4,1,7,0.37
2013-7-24,85.8,77.6,71.0,79.6,75.6,70.1,99,94,80,30.00,29.86,4,1,7,0.42
2013-7-25,86.5,79.3,75.1,78.4,75.7,72.9,97,89,73,29.97,29.85,4,1,7,0.01
2013-7-26,91.0,79.8,72.8,80.0,75.9,72.5,100,89,63,30.01,29.94,3,0,5,0.20
2013-7-27,93.5,81.4,73.4,80.2,75.1,69.9,100,83,54,30.00,29.88,3,0,5,0.00
2013-7-28,91.0,77.1,72.4,79.5,74.0,70.7,99,91,59,30.06,29.93,5,0,9,0.41
2013-7-29,93.1,80.5,70.1,78.7,73.9,69.2,100,83,48,30.15,30.02,2,0,4,0.00
2013-7-30,93.8,81.9,72.9,80.0,75.7,72.0,98,83,56,30.17,30.07,2,0,6,0.00
2013-7-31,94.2,80.5,72.1,80.8,75.1,71.0,99,85,56,30.14,30.00,3,1,6,0.48
2013-8-1,91.8,77.5,73.3,78.4,74.6,71.4,100,92,57,30.05,29.96,3,0,4,0.07
2013-8-2,92.3,79.9,71.4,79.8,74.9,71.1,100,86,63,30.03,29.94,3,0,5,0.00
2013-8-3,90.4,80.9,74.0,79.6,76.1,73.3,98,86,67,30.08,29.99,5,1,8,0.02
2013-8-4,90.1,79.8,73.9,80.4,76.7,73.1,99,91,69,30.07,29.97,4,0,7,0.49
2013-8-5,92.2,80.7,74.5,81.2,76.9,73.7,99,89,61,30.01,29.90,5,1,6,0.66
2013-8-6,92.8,80.0,72.8,81.0,76.3,72.5,100,89,67,29.99,29.89,3,0,4,0.30
2013-8-7,94.0,81.3,75.2,80.2,76.8,73.9,99,87,61,29.98,29.92,4,0,7,0.00
2013-8-8,93.7,83.4,76.5,80.0,76.7,72.6,98,82,56,30.04,29.94,4,1,7,0.00
2013-8-9,94.0,80.0,73.5,78.2,75.1,71.9,98,87,54,30.06,29.97,3,0,6,1.32
2013-8-10,95.1,82.1,71.3,78.9,75.6,71.0,100,83,53,30.13,30.03,3,1,6,0.00
2013-8-11,94.6,84.3,75.2,78.8,75.6,72.1,98,77,49,30.15,30.05,2,0,4,0.00
2013-8-12,94.6,82.5,74.0,81.5,76.6,72.2,97,83,63,30.13,29.99,2,0,4,0.25
2013-8-13,95.4,80.8,73.9,79.2,76.2,71.0,99,87,57,30.05,29.93,5,0,5,0.41
2013-8-14,94.9,81.3,74.5,79.7,76.0,73.5,98,85,55,30.00,29.89,3,0,5,0.26
2013-8-15,93.6,80.8,72.4,80.7,74.6,71.3,98,83,59,30.03,29.91,4,1,7,0.00
2013-8-16,90.6,81.2,74.2,79.7,75.8,71.5,97,84,64,30.05,29.96,3,0,5,0.00
2013-8-17,93.2,82.0,75.4,81.3,76.5,73.4,98,85,60,30.10,29.97,3,1,10,0.02
2013-8-18,92.0,80.5,74.4,80.4,76.2,72.6,99,88,64,30.10,30.00,4,1,9,0.50
2013-8-19,91.9,81.1,73.5,80.4,76.2,73.2,100,86,60,30.09,29.96,2,0,4,0.01
2013-8-20,93.8,81.3,74.7,79.7,76.2,72.9,99,86,57,30.10,29.98,3,0,7,0.04
2013-8-21,90.8,77.9,73.3,80.0,75.6,71.5,100,93,64,30.12,30.04,5,0,7,0.24
2013-8-22,93.4,78.1,72.5,81.1,76.3,71.9,100,95,62,30.10,30.00,5,0,8,0.53
2013-8-23,91.4,77.0,70.4,80.2,74.8,70.1,100,94,63,30.04,29.95,3,0,7,1.23
2013-8-24,89.6,76.5,71.0,80.7,74.7,71.0,100,95,69,30.13,30.00,4,0,7,0.41
2013-8-25,86.5,77.3,73.0,78.2,75.2,73.0,100,94,73,30.18,30.09,2,0,4,0.12
2013-8-26,87.0,78.5,72.9,78.0,75.0,72.3,99,89,73,30.16,30.03,4,1,5,0.04
2013-8-27,88.5,78.9,71.5,76.7,72.9,70.3,100,83,59,30.09,29.99,3,1,5,0.05
2013-8-28,91.6,80.1,69.3,75.2,71.3,68.4,98,77,51,30.06,29.96,2,0,5,0.00
2013-8-29,94.0,80.9,71.3,77.0,73.6,70.4,99,81,52,30.03,29.91,2,0,4,0.04
2013-8-30,96.5,82.7,72.1,78.9,74.2,71.2,98,78,46,29.98,29.86,3,0,5,0.00
2013-8-31,90.8,80.2,74.2,78.1,74.8,71.6,97,85,64,29.96,29.87,6,0,6,0.25
2013-9-1,93.4,81.3,71.5,77.4,73.3,70.6,98,79,54,29.99,29.88,3,1,5,0.00
2013-9-2,93.7,81.2,71.3,77.8,73.7,70.3,97,80,54,30.01,29.90,3,1,7,0.00
2013-9-3,90.2,80.3,72.8,79.4,75.1,71.6,97,85,62,30.01,29.91,4,0,4,0.21
2013-9-4,94.3,80.3,72.2,79.0,74.8,70.4,98,84,57,30.08,29.97,3,0,6,0.00
2013-9-5,95.7,79.5,70.0,81.8,73.8,68.8,98,85,49,30.10,30.00,2,0,4,0.21
2013-9-6,94.9,77.2,70.9,79.0,73.2,70.0,99,89,55,30.05,29.96,4,0,7,1.41
2013-9-7,89.4,77.5,69.9,77.6,72.7,69.6,99,86,59,30.02,29.93,3,0,6,0.01
2013-9-8,89.5,78.6,69.4,76.4,71.6,68.6,99,81,57,29.98,29.88,2,0,5,0.00
2013-9-9,92.2,78.5,67.0,74.2,70.1,66.1,98,78,46,30.05,29.94,2,0,6,0.00
2013-9-10,89.9,78.9,69.9,75.4,71.3,67.4,97,79,48,30.11,30.01,3,1,9,0.00
2013-9-11,90.7,80.2,73.2,76.7,73.3,70.4,97,81,54,30.09,30.00,3,1,7,0.00
2013-9-12,92.5,78.7,71.7,77.2,72.8,70.7,98,83,52,30.03,29.88,3,0,9,0.00
2013-9-13,93.7,79.4,69.5,76.1,72.5,68.4,98,81,51,29.92,29.78,3,0,4,0.00
2013-9-14,92.8,81.4,71.9,77.4,74.3,71.0,98,81,54,29.98,29.83,2,0,3,0.00
2013-9-15,92.0,81.1,73.7,78.7,74.9,72.6,97,83,59,30.08,29.97,4,1,8,0.01
2013-9-16,93.1,79.0,72.6,77.5,74.3,71.7,98,87,54,30.09,29.98,5,0,11,0.21
2013-9-17,89.2,78.7,70.8,77.7,73.5,70.2,99,85,65,30.07,29.96,3,1,7,0.00
2013-9-18,87.9,78.3,73.2,76.8,73.3,71.5,96,85,63,30.05,29.98,4,1,8,0.00
2013-9-19,90.2,78.6,72.0,75.6,72.5,69.8,97,83,58,30.06,29.98,3,1,6,0.00
2013-9-20,88.8,77.4,67.2,73.5,69.9,66.3,97,79,56,30.04,29.90,2,0,4,0.00
2013-9-21,88.3,78.3,68.6,74.0,70.8,67.4,98,79,56,29.95,29.75,2,0,3,0.00
2013-9-22,88.3,77.4,73.5,77.9,74.3,71.0,98,91,68,29.85,29.75,4,1,9,0.73
2013-9-23,82.5,75.9,73.0,78.7,75.0,72.4,99,97,86,29.95,29.83,3,0,5,0.45
2013-9-24,84.0,75.3,70.8,77.9,73.9,70.1,100,96,81,29.95,29.80,9,1,15,1.17
2013-9-25,82.8,75.7,71.2,76.3,73.7,70.2,100,94,79,29.84,29.76,4,1,7,0.07
2013-9-26,88.6,79.3,71.2,78.4,73.6,68.7,100,85,55,29.89,29.76,3,1,5,0.09
2013-9-27,84.6,74.7,68.5,73.3,70.0,67.3,97,86,67,29.98,29.87,4,1,8,0.00
2013-9-28,83.3,73.7,69.4,74.7,70.9,68.3,98,91,72,30.02,29.93,3,1,5,0.18
2013-9-29,86.0,75.1,67.9,73.7,69.6,67.0,98,84,61,30.00,29.91,3,1,5,0.00
2013-9-30,86.1,75.5,68.2,74.7,70.6,67.3,99,86,64,30.01,29.92,3,0,4,0.02
2013-10-1,87.5,76.8,69.8,74.4,70.7,67.4,95,82,63,30.08,29.98,3,0,6,0.00
2013-10-2,86.8,75.6,66.1,72.4,68.1,64.8,97,79,58,30.08,30.00,2,0,5,0.00
2013-10-3,89.0,77.0,67.2,74.9,70.5,65.8,99,82,59,30.08,29.98,3,0,5,0.00
2013-10-4,90.8,78.8,70.3,76.3,71.9,69.4,98,81,55,30.09,29.99,2,0,5,0.00
2013-10-5,89.2,76.8,67.6,75.7,71.6,66.7,99,85,59,30.07,29.96,3,0,5,0.00
2013-10-6,90.5,78.4,69.7,76.7,72.5,69.1,99,84,57,29.99,29.84,2,0,5,0.00
2013-10-7,85.4,76.0,72.4,78.5,73.7,71.4,99,93,76,29.87,29.72,3,1,7,2.07
2013-10-8,83.6,75.6,71.3,76.1,73.1,68.9,99,92,77,29.98,29.77,4,1,5,0.03
2013-10-9,71.3,69.5,66.1,68.7,66.3,63.9,93,90,85,30.06,29.96,3,1,4,0.00
2013-10-10,84.3,72.5,63.0,69.4,65.6,61.8,97,81,55,30.07,29.97,2,0,4,0.00
2013-10-11,87.5,73.1,61.9,70.4,65.4,61.0,99,79,49,30.05,29.94,2,0,5,0.00
2013-10-12,85.5,72.8,61.4,70.4,64.0,60.5,98,76,48,30.05,29.96,2,0,3,0.00
2013-10-13,85.2,72.9,62.1,68.9,63.8,60.9,98,76,46,30.09,29.99,2,0,4,0.00
2013-10-14,83.4,72.1,64.0,69.6,66.2,63.1,98,83,58,30.05,29.95,4,1,4,0.00
2013-10-15,76.0,71.2,67.1,70.9,68.4,65.3,95,91,83,30.01,29.91,2,0,3,0.00
2013-10-16,88.1,75.4,69.1,72.2,69.2,64.4,95,83,46,29.99,29.89,2,0,4,0.00
2013-10-17,88.2,75.8,67.5,74.3,69.9,66.3,99,84,56,29.99,29.88,2,0,4,0.00
2013-10-18,89.0,77.3,68.0,76.0,71.0,67.1,98,82,57,29.99,29.89,2,0,4,0.00
2013-10-19,89.7,77.5,70.4,76.2,72.7,69.2,97,86,60,29.96,29.85,4,0,6,0.06
2013-10-20,83.8,75.5,70.4,74.7,72.1,67.8,99,90,73,29.98,29.87,2,0,5,0.00
2013-10-21,88.4,76.3,68.4,78.2,72.5,66.9,99,89,67,30.00,29.90,2,0,4,0.09
2013-10-22,90.2,78.3,71.9,76.8,72.5,68.8,98,84,55,29.96,29.81,4,1,9,0.01
2013-10-23,79.1,71.0,60.8,70.3,62.8,53.5,97,77,43,30.03,29.81,3,0,5,0.02
2013-10-24,70.6,61.4,54.5,56.2,51.2,47.0,92,70,48,30.18,30.02,2,1,4,0.00
2013-10-25,77.9,63.0,49.9,58.8,54.6,48.8,97,77,48,30.25,30.15,2,0,4,0.00
2013-10-26,74.8,62.8,51.2,58.4,54.0,49.6,97,75,47,30.23,30.11,2,0,4,0.00
2013-10-27,76.9,62.3,51.7,58.0,52.7,44.6,98,75,35,30.16,30.06,2,0,4,0.00
2013-10-28,81.7,65.8,52.3,64.3,57.9,51.3,98,79,44,30.20,30.11,2,0,4,0.00
2013-10-29,81.8,69.9,60.6,67.4,63.6,59.6,97,82,59,30.25,30.15,3,1,7,0.00
2013-10-30,82.2,71.5,62.4,70.2,65.7,61.2,98,83,62,30.24,30.11,2,0,5,0.00
2013-10-31,84.9,73.5,63.6,70.9,67.0,63.0,99,82,55,30.15,29.97,5,1,7,0.00
2013-11-1,86.7,76.6,69.5,73.2,69.7,67.1,95,80,57,30.00,29.86,4,1,10,0.00
2013-11-2,74.5,68.0,58.5,72.4,66.3,57.7,97,94,88,29.98,29.78,3,0,6,0.44
2013-11-3,72.6,62.1,54.8,57.6,52.9,47.8,98,74,42,30.15,29.98,4,1,7,0.01
2013-11-4,77.8,67.3,59.7,64.9,59.3,53.7,95,76,54,30.20,30.12,3,2,9,0.00
2013-11-5,81.7,71.1,63.7,68.3,65.5,62.4,97,84,59,30.18,30.10,4,1,11,0.07
2013-11-6,78.2,69.4,62.6,71.3,66.8,62.0,99,92,76,30.14,30.05,2,0,4,0.05
2013-11-7,78.2,70.0,64.6,70.5,67.3,63.7,99,92,72,30.07,29.96,1,0,2,0.00
2013-11-8,73.5,65.1,57.7,65.7,59.3,49.5,97,82,69,30.15,30.01,4,2,7,0.00
2013-11-9,79.9,66.8,57.5,67.2,60.8,55.7,95,82,62,30.20,30.12,3,0,7,0.00
2013-11-10,79.5,68.9,61.0,68.8,64.0,60.1,98,86,62,30.19,30.09,2,0,3,0.00
2013-11-11,81.0,68.9,60.6,68.5,63.6,59.3,97,85,62,30.18,30.07,2,0,3,0.00
2013-11-12,77.8,67.8,61.2,68.9,63.1,56.0,99,86,70,30.13,30.00,2,0,4,0.00
2013-11-13,64.6,56.5,48.9,56.0,48.3,44.3,85,74,64,30.36,30.10,6,3,9,0.00
2013-11-14,73.4,57.7,45.5,59.6,51.5,43.7,95,81,59,30.33,30.21,3,0,7,0.00
2013-11-15,67.9,62.1,56.0,65.0,60.8,54.9,98,95,88,30.21,30.07,2,0,3,0.24
2013-11-16,72.8,67.2,63.1,70.6,66.2,62.5,99,97,92,30.15,30.05,1,0,3,0.68
2013-11-17,82.8,72.9,67.1,74.3,70.3,66.8,100,92,73,30.09,29.99,2,0,5,0.00
2013-11-18,79.7,72.4,65.6,73.3,69.8,65.0,99,92,77,30.03,29.91,3,0,5,0.00
2013-11-19,74.0,67.6,61.3,68.9,62.0,52.0,99,83,63,30.00,29.89,3,1,5,0.00
2013-11-20,75.7,67.6,61.4,70.8,65.1,58.9,95,92,84,30.13,29.99,2,1,5,0.00
2013-11-21,77.0,70.4,65.5,71.2,67.9,64.3,96,92,82,30.21,30.12,2,1,6,0.00
2013-11-22,79.3,70.2,64.8,71.9,67.9,63.8,98,93,76,30.22,30.11,3,0,5,0.11
2013-11-23,83.3,70.3,61.6,70.3,64.9,61.0,99,85,55,30.12,30.01,2,0,5,0.00
2013-11-24,68.3,61.4,55.3,65.7,55.6,48.5,92,81,73,30.28,30.04,5,2,12,0.00
2013-11-25,74.2,64.9,55.8,60.5,56.8,50.1,86,76,57,30.27,30.08,4,1,8,0.00
2013-11-26,79.5,71.4,63.9,74.1,68.5,59.9,98,91,79,30.09,29.74,4,1,9,0.38
2013-11-27,70.8,58.4,41.5,69.8,54.3,35.9,98,86,73,30.22,29.67,7,3,12,0.22
2013-11-28,61.8,47.6,34.6,50.7,41.0,30.3,88,78,65,30.38,30.22,2,1,6,0.00
2013-11-29,69.2,56.2,47.4,59.0,51.3,45.0,96,84,69,30.40,30.30,4,2,7,0.00
2013-11-30,71.6,60.8,53.9,63.8,57.6,50.7,97,90,75,30.34,30.22,4,2,7,0.00
2013-12-1,71.5,62.1,58.3,64.7,60.0,57.5,99,93,74,30.21,29.99,1,0,4,0.00
2013-12-2,73.1,61.7,53.4,61.9,57.4,51.9,99,87,53,29.98,29.82,3,0,5,0.00
2013-12-3,78.9,63.2,50.5,64.1,57.7,49.7,99,84,60,29.99,29.88,3,0,6,0.00
2013-12-4,82.5,68.1,59.5,69.7,63.4,58.2,99,87,59,30.09,29.96,2,0,5,0.00
2013-12-5,82.3,69.9,60.2,70.2,65.0,59.6,99,86,64,30.17,30.08,2,0,4,0.00
2013-12-6,86.3,72.6,62.8,72.1,67.6,62.2,99,86,58,30.18,30.08,4,1,12,0.00
2013-12-7,83.6,71.2,63.4,70.7,66.3,61.9,99,86,61,30.24,30.14,2,0,4,0.00
2013-12-8,83.2,70.4,59.5,71.7,65.2,58.8,99,85,60,30.24,30.10,3,0,7,0.00
2013-12-9,84.7,71.9,62.2,72.5,67.5,61.5,99,87,64,30.18,30.07,4,1,6,0.00
2013-12-10,83.4,71.1,61.2,70.1,65.7,59.3,98,85,59,30.21,30.06,4,1,7,0.02
2013-12-11,77.9,65.1,54.7,68.6,59.5,50.9,93,83,69,30.27,30.16,2,1,5,0.00
2013-12-12,67.0,58.3,46.8,58.9,46.2,30.5,94,68,28,30.35,30.22,3,1,6,0.00
2013-12-13,73.6,58.3,46.3,57.5,50.9,42.4,93,78,53,30.30,30.12,2,0,5,0.00
2013-12-14,79.6,68.3,58.1,71.5,64.7,55.2,97,89,72,30.12,29.91,5,1,12,0.17
2013-12-15,72.8,64.0,55.2,70.6,61.6,52.0,98,92,81,30.14,29.86,5,1,7,0.66
2013-12-16,61.1,50.2,41.3,51.3,43.6,39.4,94,79,48,30.25,30.14,2,0,3,0.00
2013-12-17,68.3,50.7,38.4,50.3,43.1,37.4,97,78,44,30.28,30.16,2,0,3,0.00
2013-12-18,66.4,50.8,39.9,48.7,43.3,38.0,96,78,48,30.31,30.21,3,0,4,0.00
2013-12-19,73.8,55.0,39.7,59.7,49.2,38.4,98,83,44,30.30,30.18,2,0,4,0.00
2013-12-20,81.5,64.4,50.5,65.1,58.1,49.6,98,82,55,30.22,30.11,3,0,8,0.00
2013-12-29,72.8,66.8,61.3,70.7,65.7,60.7,98,96,90,30.01,29.89,2,0,5,0.13
2013-12-30,66.8,59.1,53.8,60.3,54.3,48.0,99,86,53,30.21,30.00,2,0,3,0.00
2013-12-31,67.2,58.0,51.3,53.4,51.5,48.1,97,80,52,30.32,30.17,2,0,3,0.00
2014-1-1,61.5,57.4,54.3,60.1,55.8,50.4,98,95,83,30.28,30.07,2,0,4,0.08
2014-1-2,71.4,63.7,56.1,70.6,63.1,53.1,99,98,90,30.07,29.82,4,1,8,0.34